Ouarzazate, Morocco

10:42 AM WEST on April 24, 2018 (GMT +0100)
Ouarzazate

Weather History for GMMZ - January, 2014

Change the Weather History Date:

Sunday, January 26, 2014

  Actual Average Record
Temperature  
Mean Temperature 52 °F -  
Max Temperature 70 °F 66 °F - ()
Min Temperature 35 °F 39 °F - ()
Degree Days  
Heating Degree Days 12    
Growing Degree Days 2 (Base 50)    
Moisture  
Dew Point 24 °F    
Average Humidity 32    
Maximum Humidity 56    
Minimum Humidity 10    
Precipitation  
Precipitation 0.00 in 0.02 in - ()
Sea Level Pressure  
Sea Level Pressure 30.27 in    
Wind  
Wind Speed 1 mph ()    
Max Wind Speed 4 mph    
Max Gust Speed -    
Visibility 12.0 miles    
Events      
T = Trace of Precipitation, MM = Missing Value Source: Averaged Metar Reports

Daily Weather History Graph

Daily Weather History Graph

Search for Another Location

Airport or City:

Astronomy

Jan. 26, 2014 Rise Set
Actual Time 7:22 AM WET 5:57 PM WET
Civil Twilight 6:57 AM WET 6:23 PM WET
Nautical Twilight 6:27 AM WET 6:52 PM WET
Astronomical Twilight 5:59 AM WET 7:21 PM WET
Moon 2:44 AM WET (1/26) 1:36 PM WET (1/26)
Length of Visible Light 11h 26m
Length of Day
10h 35m
Waning Crescent, 26% of the Moon is Illuminated
Jan 26
Waning Crescent
Jan 30
New
Feb 6
First Quarter
Feb 14
Full
Feb 22
Last Quarter

Hourly Weather History & Observations

Time (WET) Temp. Windchill Dew Point Humidity Pressure Visibility Wind Dir Wind Speed Gust Speed Precip Events Conditions
12:00 AM 45 °F - 22 °F 27%  in 12 mi NW 3.5 mph - -  
12:00 AM 44.6 °F 43.1 °F 21.2 °F 39% 30.24 in - Variable 3.5 mph - N/A   Clear
1:00 AM 48.2 °F - 23.0 °F 37% 30.24 in - Calm Calm - N/A   Clear
2:00 AM 44.6 °F - 24.8 °F 46% 30.24 in - Variable 1.2 mph - N/A   Clear
3:00 AM 43 °F - 22 °F 31%  in 12 mi NNW 1.2 mph - -  
3:00 AM 42.8 °F - 23.0 °F 46% 30.24 in - Variable 1.2 mph - N/A   Clear
4:00 AM 44.6 °F - 23.0 °F 43% 30.24 in - Variable 1.2 mph - N/A   Clear
5:00 AM 41.0 °F - 23.0 °F 49% 30.24 in - Calm Calm - N/A   Clear
6:00 AM 37 °F - 21 °F 39%  in 12 mi WNW 3.5 mph - -  
6:00 AM 37.4 °F 34.9 °F 21.2 °F 52% 30.27 in - Variable 3.5 mph - N/A   Clear
7:00 AM 41.0 °F - 23.0 °F 49% 30.30 in - Variable 2.3 mph - N/A   Clear
8:00 AM 35.6 °F - 21.2 °F 56% 30.33 in - Calm Calm - N/A   Clear
9:00 AM 44 °F - 23 °F 31%  in 12 mi Calm Calm - -  
9:00 AM 44.6 °F - 23.0 °F 43% 30.36 in - Calm Calm - N/A   Clear
10:00 AM 48.2 °F - 24.8 °F 40% 30.36 in - Variable 1.2 mph - N/A   Clear
11:00 AM 53.6 °F - 23.0 °F 30% 30.39 in - Calm Calm - N/A   Clear
12:00 PM 60 °F - 24 °F 14%  in 12 mi Calm Calm - -  
12:00 PM 59.0 °F - 24.8 °F 27% 30.36 in - Calm Calm - N/A   Clear
1:00 PM 62.6 °F - 23.0 °F 22% 30.30 in - Variable 1.2 mph - N/A   Clear
2:00 PM 66.2 °F - 24.8 °F 21% 30.27 in - Variable 1.2 mph - N/A   Clear
3:00 PM 67 °F - 23 °F 10%  in 12 mi NNW 1.2 mph - -  
3:00 PM 68.0 °F - 23.0 °F 18% 30.24 in - Variable 1.2 mph - N/A   Clear
4:00 PM 68.0 °F - 24.8 °F 20% 30.21 in - Variable 2.3 mph - N/A   Clear
5:00 PM 69.8 °F - 24.8 °F 18% 30.21 in - Calm Calm - N/A   Clear
6:00 PM 68 °F - 25 °F 11%  in 12 mi Calm Calm - -  
6:00 PM 68.0 °F - 24.8 °F 20% 30.21 in - Calm Calm - N/A   Clear
7:00 PM 64.4 °F - 24.8 °F 22% 30.24 in - Calm Calm - N/A   Clear
9:00 PM 56 °F - 25 °F 18%  in 12 mi West 2.3 mph - -  
9:00 PM 55.4 °F - 24.8 °F 31% 30.24 in - Variable 2.3 mph - N/A   Clear
10:00 PM 57.2 °F - 24.8 °F 29% 30.24 in - Calm Calm - N/A   Clear
11:00 PM 50.0 °F - 26.6 °F 40% 30.27 in - Variable 1.2 mph - N/A   Clear